TimeMST,TemperatureF,Dew PointF,Humidity,Sea Level PressureIn,VisibilityMPH,Wind Direction,Wind SpeedMPH,Gust SpeedMPH,PrecipitationIn,Events,Conditions,WindDirDegrees,DateUTC
12:53 AM,19.9,17.1,89,30.36,10.0,WSW,4.6,-,N/A,,Scattered Clouds,250,2013-11-26 07:53:00
1:53 AM,19.0,15.1,85,30.37,10.0,Calm,Calm,-,N/A,,Clear,0,2013-11-26 08:53:00
2:53 AM,21.0,17.1,85,30.37,10.0,Calm,Calm,-,N/A,,Clear,0,2013-11-26 09:53:00
3:53 AM,21.9,18.0,85,30.39,10.0,Calm,Calm,-,N/A,,Overcast,0,2013-11-26 10:53:00
4:53 AM,21.0,18.0,88,30.41,10.0,West,3.5,-,N/A,,Mostly Cloudy,270,2013-11-26 11:53:00
5:53 AM,21.0,17.1,85,30.43,10.0,North,6.9,-,N/A,,Clear,350,2013-11-26 12:53:00
6:53 AM,21.9,17.1,82,30.47,10.0,North,8.1,-,N/A,,Clear,360,2013-11-26 13:53:00
7:53 AM,24.1,19.0,81,30.48,10.0,NNW,5.8,-,N/A,,Clear,340,2013-11-26 14:53:00
8:53 AM,28.9,21.0,72,30.50,10.0,North,9.2,-,N/A,,Clear,350,2013-11-26 15:53:00
9:53 AM,30.9,19.0,61,30.51,10.0,North,10.4,-,N/A,,Clear,10,2013-11-26 16:53:00
10:53 AM,32.0,19.9,61,30.48,10.0,North,9.2,-,N/A,,Clear,10,2013-11-26 17:53:00
11:53 AM,34.0,19.9,56,30.46,10.0,North,6.9,-,N/A,,Clear,350,2013-11-26 18:53:00
12:53 PM,34.0,19.9,56,30.45,10.0,North,8.1,-,N/A,,Clear,350,2013-11-26 19:53:00
1:53 PM,34.0,19.9,56,30.43,10.0,Calm,Calm,-,N/A,,Clear,0,2013-11-26 20:53:00
2:53 PM,35.1,19.9,54,30.42,10.0,Calm,Calm,-,N/A,,Clear,0,2013-11-26 21:53:00
3:53 PM,34.0,19.9,56,30.40,10.0,Calm,Calm,-,N/A,,Clear,0,2013-11-26 22:53:00
4:53 PM,27.0,18.0,69,30.41,10.0,Calm,Calm,-,N/A,,Clear,0,2013-11-26 23:53:00
5:53 PM,24.1,17.1,75,30.41,10.0,ESE,3.5,-,N/A,,Clear,120,2013-11-27 00:53:00
6:53 PM,19.9,16.0,85,30.42,10.0,SSE,4.6,-,N/A,,Clear,150,2013-11-27 01:53:00
7:53 PM,19.0,15.1,85,30.40,10.0,SSE,5.8,-,N/A,,Clear,160,2013-11-27 02:53:00
8:53 PM,19.0,16.0,88,30.39,10.0,SSE,8.1,-,N/A,,Clear,160,2013-11-27 03:53:00
9:53 PM,19.0,15.1,85,30.38,10.0,SSE,6.9,-,N/A,,Clear,160,2013-11-27 04:53:00
10:53 PM,19.0,15.1,85,30.35,10.0,SE,8.1,-,N/A,,Clear,140,2013-11-27 05:53:00
11:53 PM,21.0,18.0,88,30.32,10.0,SSE,9.2,-,N/A,,Clear,150,2013-11-27 06:53:00